DateTimeUTC,F1_A11,F1_S11,BsB_S11,BsG_S11,BsR_S11,BbsB_S11,BbsG_S11,BbsR_S11,BaB_A11,BaG_A11,BaR_A11,Tu_S11,T_S11,Uu_S11,U_S11,P_S11,T1_A11
2021-11-25T18:00:00Z,00000200,21000000,,,,,,,-000.39,0000.08,-000.03,18.8,25.9,,00.0,0646.1,30.9
2021-11-25T18:01:00Z,00000200,21000000,,,,,,,-000.01,0000.03,-000.12,18.8,26.0,,00.0,0646.1,30.9
2021-11-25T18:02:00Z,00000200,21000000,,,,,,,-000.14,-000.24,-000.21,18.8,26.0,,00.0,0646.1,30.9
2021-11-25T18:03:00Z,00000200,61000000,,,,,,,0000.05,0000.07,0000.20,18.8,26.0,,00.0,0646.1,30.9
2021-11-25T18:04:00Z,00000200,41000000,0000.23,-000.16,0000.26,-000.07,-000.15,-000.05,-000.01,-000.11,0000.12,19.2,25.9,,00.0,0647.0,30.9
2021-11-25T18:05:00Z,00000200,01000000,-000.16,0000.39,0000.35,0000.10,-000.08,-000.13,-000.10,0000.08,-000.26,19.3,25.9,,00.0,0647.1,30.9
2021-11-25T18:06:00Z,00000200,01000000,0000.31,0000.39,0000.04,0000.36,-000.08,0000.11,0000.05,-000.02,-000.24,19.4,25.9,,00.0,0647.1,30.9
2021-11-25T18:07:00Z,00000200,01000000,0000.71,0000.03,0000.00,0000.37,0000.02,-000.09,0000.01,-000.28,0000.13,19.4,26.0,,00.0,0647.2,30.9
2021-11-25T18:08:00Z,00000200,01000000,0000.28,0000.14,0000.21,-000.33,0000.00,0000.07,-000.00,-000.17,0000.12,19.4,25.9,,00.0,0647.2,30.9
2021-11-25T18:09:00Z,00000200,01000000,-000.19,0000.26,0000.11,0000.73,-000.22,0000.10,0000.03,0000.09,-000.19,19.4,25.9,,00.0,0647.2,30.9
2021-11-25T18:10:00Z,00000200,01000000,0000.17,-000.17,0000.17,0000.87,0000.26,-000.02,-000.13,-000.06,0000.00,19.3,25.9,,00.0,0647.2,30.9
2021-11-25T18:11:00Z,00000200,01000000,0000.13,0000.49,0000.23,-000.19,0000.28,-000.12,-000.01,0000.18,-000.11,19.3,25.9,,00.0,0647.2,30.9
2021-11-25T18:12:00Z,00000200,01000000,0000.75,0000.47,0000.07,0000.61,0000.21,-000.09,0000.15,0000.11,0000.25,19.3,25.8,,00.0,0647.2,30.9
2021-11-25T18:13:00Z,00000200,01000000,-000.33,0000.33,0000.18,0000.20,0000.34,-000.13,-000.46,-000.25,-000.12,19.3,25.9,,00.0,0647.3,30.9
2021-11-25T18:14:00Z,00000200,01000000,0000.12,-000.06,0000.05,-000.13,-000.34,-000.34,0000.53,0000.29,0000.01,19.3,25.9,,00.0,0647.3,30.9
2021-11-25T18:15:00Z,00000200,01000000,0000.42,0000.14,0000.26,0000.24,0000.24,-000.03,0000.14,0000.28,-000.11,19.3,25.9,,00.0,0647.3,30.9
2021-11-25T18:16:00Z,00000200,01000000,-000.06,0000.02,0000.37,-000.12,0000.26,-000.01,-000.52,-000.25,-000.30,19.4,25.9,,00.0,0647.3,30.9
2021-11-25T18:17:00Z,00000200,01000000,-000.24,0000.06,0000.15,0000.10,0000.53,-000.23,0000.31,0000.02,0000.30,19.4,25.9,,00.0,0647.3,30.9
2021-11-25T18:18:00Z,00000200,01000000,-000.30,0000.50,-000.29,0000.30,0000.30,-000.06,-000.09,0000.13,-000.14,19.5,26.0,,00.0,0647.4,30.9
2021-11-25T18:19:00Z,00000200,01000000,0000.06,0000.26,0000.02,0000.63,0000.10,0000.04,-000.14,-000.33,0000.23,19.5,26.0,,00.0,0647.4,30.9
2021-11-25T18:20:00Z,00000200,01000000,0000.04,-000.14,-000.03,0001.02,-000.00,0000.00,0000.16,0000.04,-000.33,19.5,26.0,,00.0,0647.4,30.9
2021-11-25T18:21:00Z,00000200,01000000,0000.65,0000.08,0000.31,0000.30,-000.08,-000.20,-000.07,-000.30,-000.05,19.5,26.0,,00.0,0647.4,30.9
2021-11-25T18:22:00Z,00000200,01000000,-000.15,0000.24,0000.14,0000.32,-000.13,0000.03,-000.18,0000.19,-000.32,19.4,25.9,,00.0,0647.4,30.9
2021-11-25T18:23:00Z,00000200,01000000,-000.50,0000.41,-000.03,0000.13,0000.14,-000.33,-000.05,0000.11,0000.48,19.3,25.9,,00.0,0647.4,30.8
2021-11-25T18:24:00Z,00000200,01000000,0000.05,0000.11,0000.16,0000.35,-000.09,0000.06,0000.20,-000.33,-000.31,19.2,25.8,,00.0,0647.4,30.8
2021-11-25T18:25:00Z,00000200,01000000,0000.27,-000.06,0000.19,0000.64,0000.02,-000.07,-000.30,0000.19,0000.03,19.1,25.8,,00.0,0647.4,30.8
2021-11-25T18:26:00Z,00000200,01000000,0000.38,0000.17,0000.28,-000.05,0000.16,-000.30,0000.10,-000.04,0000.36,19.0,25.7,,00.0,0647.4,30.8
2021-11-25T18:27:00Z,00000200,01000000,0000.19,0000.16,0000.31,-000.10,0000.23,0000.12,0000.52,0000.01,-000.45,19.1,25.7,,00.0,0647.4,30.8
2021-11-25T18:28:00Z,00000200,01000000,0000.29,0000.09,0000.05,-000.54,0000.08,0000.09,-000.15,0000.37,0000.37,19.1,25.7,,00.0,0647.4,30.9
2021-11-25T18:29:00Z,00000200,01000000,-000.39,0000.06,-000.07,0000.19,0000.03,-000.25,0000.17,0000.14,0000.05,19.1,25.7,,00.0,0647.4,30.9
2021-11-25T18:30:00Z,00000200,01000000,-000.22,0000.29,-000.09,-000.05,0000.48,0000.08,0000.30,0000.09,0000.14,19.2,25.8,,00.0,0647.3,30.9
2021-11-25T18:31:00Z,00000200,01000000,-000.23,0000.12,0000.20,0000.08,0000.25,0000.18,0000.05,0000.08,0000.16,19.2,25.8,,00.0,0647.3,30.9
2021-11-25T18:32:00Z,00000200,01000000,0000.26,-000.13,0000.13,0000.45,-000.06,-000.47,0000.03,0000.14,0000.10,19.2,25.8,,00.0,0647.3,30.9
2021-11-25T18:33:00Z,00000200,01000000,-000.49,-000.17,0000.21,0000.84,0000.20,0000.13,-000.05,0000.06,0000.02,19.3,25.8,,00.0,0647.3,30.9
2021-11-25T18:34:00Z,00000200,01000000,0000.49,-000.22,0000.47,0000.71,0000.34,0000.01,0000.12,-000.01,0000.27,19.3,25.9,,00.0,0647.3,30.9
2021-11-25T18:35:00Z,00000200,01000000,-000.08,0000.40,0000.25,0000.36,0000.11,-000.21,0000.18,0000.35,-000.02,19.4,25.9,,00.0,0647.3,30.9
2021-11-25T18:36:00Z,00000200,01000000,0000.36,0000.16,0000.14,0000.44,0000.11,-000.15,0000.19,-000.16,-000.23,19.4,25.9,,00.0,0647.3,30.9
2021-11-25T18:37:00Z,00000200,01000000,0000.01,0000.15,0000.25,0000.72,0000.10,0000.18,-000.09,-000.11,-000.01,19.5,25.9,,00.0,0647.3,30.9
2021-11-25T18:38:00Z,00000200,01000000,-000.05,0000.06,0000.03,0000.00,0000.15,-000.17,-000.18,-000.03,0000.24,19.5,25.9,,00.0,0647.3,30.9
2021-11-25T18:39:00Z,00000200,01000000,0000.08,0000.18,-000.35,0001.03,0000.04,-000.11,0000.10,-000.00,0000.05,19.4,25.9,,00.0,0647.2,30.9
2021-11-25T18:40:00Z,00000200,01000000,0000.07,0000.28,0000.09,0000.72,0000.08,-000.05,0000.23,0000.29,-000.07,19.3,25.8,,00.0,0647.2,30.9
2021-11-25T18:41:00Z,00000200,01000000,0000.50,0000.35,0000.11,-000.09,0000.29,0000.31,-000.02,-000.31,-000.17,19.2,25.8,,00.0,0647.2,30.9
2021-11-25T18:42:00Z,00000200,01000000,0000.49,0000.14,0000.31,0000.65,0000.12,-000.16,0000.03,0000.29,0000.27,19.2,25.8,,00.0,0647.3,30.9
2021-11-25T18:43:00Z,00000200,01000000,-000.16,0000.13,0000.32,0000.50,-000.17,0000.20,0000.08,0000.16,0000.07,19.2,25.8,,00.0,0647.3,30.9
2021-11-25T18:44:00Z,00000200,01000000,0000.39,-000.33,0000.01,-000.00,-000.19,-000.03,-000.01,-000.20,0000.02,19.3,25.8,,00.0,0647.3,30.9
2021-11-25T18:45:00Z,00000200,01000000,-000.07,0000.02,0000.29,0000.12,-000.13,0000.14,0000.30,0000.52,0000.27,19.3,25.8,,00.0,0647.3,30.9
2021-11-25T18:46:00Z,00000200,01000000,-000.65,-000.12,0000.22,0000.26,0000.31,0000.15,-000.14,-000.06,-000.01,19.4,25.8,,00.0,0647.4,30.9
2021-11-25T18:47:00Z,00000200,01000000,-000.46,0000.44,0000.19,0000.47,-000.01,-000.14,-000.03,-000.06,-000.45,19.4,25.9,,00.0,0647.4,30.9
2021-11-25T18:48:00Z,00000200,01000000,-000.05,-000.00,0000.13,0000.35,0000.06,-000.26,0000.29,-000.08,0000.15,19.4,25.9,,00.0,0647.5,30.9
2021-11-25T18:49:00Z,00000200,01000000,-000.23,0000.15,0000.29,0000.18,0000.16,0000.19,-000.14,-000.28,0000.21,19.5,25.9,,00.0,0647.5,30.9
2021-11-25T18:50:00Z,00000200,01000000,0000.39,0000.22,-000.10,0000.63,0000.04,-000.00,-000.15,-000.06,-000.12,19.5,25.9,,00.0,0647.6,31.0
2021-11-25T18:51:00Z,00000200,01000000,0000.11,-000.01,-000.07,0000.22,-000.39,-000.13,-000.24,0000.15,-000.51,19.5,26.0,,00.0,0647.6,30.9
2021-11-25T18:52:00Z,00000200,01000000,-000.52,0000.04,0000.28,0000.05,0000.27,0000.29,0000.03,-000.37,0000.21,19.5,26.0,,00.0,0647.7,30.9
2021-11-25T18:53:00Z,00000200,01000000,0000.47,0000.25,-000.13,0000.08,0000.14,-000.22,-000.18,0000.41,0000.06,19.4,25.9,,00.0,0647.7,30.9
2021-11-25T18:54:00Z,00000200,01000000,0000.58,0000.43,0000.16,-000.08,-000.32,0000.04,0000.25,-000.22,-000.36,19.3,25.9,,00.0,0647.6,30.9
2021-11-25T18:55:00Z,00000200,01000000,-000.22,0000.02,-000.06,0000.61,-000.00,-000.19,-000.24,0000.04,0000.34,19.2,25.8,,00.0,0647.7,30.8
2021-11-25T18:56:00Z,00000200,01000000,0000.19,-000.19,0000.42,0000.67,0000.21,0000.10,0000.09,-000.15,-000.41,19.2,25.8,,00.0,0647.7,30.8
2021-11-25T18:57:00Z,00000200,41000000,,,,,,,0001.32,0001.35,0001.12,19.2,25.8,,00.0,0647.7,30.9
2021-11-25T18:58:00Z,00000200,61000000,,,,,,,-000.92,-000.75,-000.54,18.8,25.9,,00.0,0646.8,30.8
2021-11-25T18:59:00Z,00000200,21000000,,,,,,,0000.12,-000.21,-000.03,18.8,26.0,,00.0,0646.8,30.9
